• In Belarus
  • List of Countries
  • For 7 days
  • Water Temperature
  • Satellite Maps
  • Weather Map
  • Weather Widgets
  • user-avatar
    Login

    Hourly Weather Bugojno

    Today, 20 January, Saturday

    Time Temperature Precipitation Wind Pressure Humidity
    00:00 +1°C° 1.6 mm 2 mps 707 mmHg 95%
    01:00 +1°C° 0 mm 1 mps 707 mmHg 95%
    02:00 +1°C° 1 mm 1 mps 707 mmHg 95%
    03:00 -1°C° 1 mm 2 mps 707 mmHg 95%
    04:00 -1°C° 1 mm 2 mps 707 mmHg 94%
    05:00 -2°C° 0.2 mm 2 mps 707 mmHg 94%
    06:00 0°C° 0.2 mm 1 mps 707 mmHg 94%
    07:00 -1°C° 0 mm 1 mps 707 mmHg 93%
    08:00 0°C° 0 mm 1 mps 707 mmHg 92%
    09:00 +2°C° 0 mm 1 mps 707 mmHg 90%
    10:00 +3°C° 0 mm 1 mps 707 mmHg 88%
    11:00 +4°C° 0 mm 1 mps 707 mmHg 88%
    12:00 +4°C° 0 mm 1 mps 707 mmHg 89%
    13:00 +5°C° 0 mm 1 mps 708 mmHg 89%
    14:00 +4°C° 0 mm 1 mps 707 mmHg 89%
    15:00 +4°C° 0 mm 1 mps 707 mmHg 89%
    16:00 +3°C° 0 mm 1 mps 707 mmHg 89%
    17:00 +2°C° 0 mm 1 mps 706 mmHg 89%
    18:00 +1°C° 0 mm 1 mps 706 mmHg 88%
    19:00 -3°C° 0 mm 2 mps 706 mmHg 88%
    20:00 -2°C° 0 mm 2 mps 705 mmHg 86%
    21:00 -2°C° 0 mm 2 mps 705 mmHg 83%
    22:00 -2°C° 0 mm 2 mps 705 mmHg 81%
    23:00 -2°C° 0 mm 2 mps 704 mmHg 80%

    Tomorrow, 21 January, Sunday

    Time Temperature Precipitation Wind Pressure Humidity
    00:00 -1°C° 0 mm 3 mps 704 mmHg 79%
    01:00 -1°C° 0 mm 3 mps 703 mmHg 77%
    02:00 0°C° 0.2 mm 3 mps 703 mmHg 81%
    03:00 -1°C° 0.2 mm 4 mps 702 mmHg 84%
    04:00 0°C° 0.2 mm 4 mps 701 mmHg 87%
    05:00 +1°C° 0.9 mm 4 mps 701 mmHg 89%
    06:00 +2°C° 0.9 mm 3 mps 700 mmHg 91%
    07:00 +4°C° 0.9 mm 2 mps 700 mmHg 93%
    08:00 +4°C° 0.8 mm 2 mps 700 mmHg 94%
    09:00 +5°C° 0.8 mm 1 mps 700 mmHg 95%
    10:00 +5°C° 0.8 mm 1 mps 701 mmHg 97%
    11:00 +6°C° 0.1 mm 1 mps 701 mmHg 96%
    12:00 +6°C° 0.1 mm 1 mps 701 mmHg 96%
    13:00 +6°C° 0.1 mm 1 mps 701 mmHg 95%
    14:00 +6°C° 0.1 mm 1 mps 702 mmHg 96%
    15:00 +5°C° 0.1 mm 2 mps 702 mmHg 96%
    16:00 +4°C° 0.1 mm 2 mps 702 mmHg 96%
    17:00 +3°C° 0.2 mm 2 mps 703 mmHg 95%
    18:00 +3°C° 0.2 mm 2 mps 704 mmHg 94%
    19:00 +2°C° 0.2 mm 2 mps 705 mmHg 93%
    20:00 0°C° 0.1 mm 3 mps 705 mmHg 92%
    21:00 0°C° 0.1 mm 3 mps 706 mmHg 92%
    22:00 -1°C° 0.1 mm 3 mps 706 mmHg 91%
    23:00 -2°C° 0.2 mm 4 mps 707 mmHg 91%

    Day after tomorrow, 22 January, Monday

    Time Temperature Precipitation Wind Pressure Humidity
    00:00 -2°C° 0.2 mm 4 mps 707 mmHg 91%
    01:00 -3°C° 0.2 mm 4 mps 708 mmHg 90%
    02:00 -3°C° 0.1 mm 4 mps 708 mmHg 90%
    03:00 -3°C° 0.1 mm 4 mps 708 mmHg 90%
    04:00 -4°C° 0.1 mm 4 mps 708 mmHg 90%
    05:00 -4°C° 0 mm 3 mps 708 mmHg 91%
    06:00 -4°C° 0 mm 3 mps 708 mmHg 92%
    07:00 -4°C° 0 mm 2 mps 709 mmHg 92%
    08:00 -3°C° 0 mm 2 mps 709 mmHg 89%
    09:00 -2°C° 0 mm 2 mps 709 mmHg 86%
    10:00 -2°C° 0 mm 2 mps 709 mmHg 82%
    11:00 +1°C° 0 mm 1 mps 709 mmHg 79%
    12:00 +2°C° 0 mm 1 mps 709 mmHg 75%
    13:00 +3°C° 0 mm 1 mps 709 mmHg 71%
    14:00 +3°C° 0 mm 1 mps 709 mmHg 74%
    15:00 +1°C° 0 mm 0 mps 709 mmHg 77%
    16:00 +1°C° 0 mm 0 mps 709 mmHg 79%
    17:00 0°C° 0 mm 0 mps 709 mmHg 80%
    18:00 0°C° 0 mm 1 mps 710 mmHg 80%
    19:00 -1°C° 0 mm 1 mps 710 mmHg 80%
    20:00 -1°C° 0 mm 1 mps 710 mmHg 79%
    21:00 -1°C° 0 mm 1 mps 711 mmHg 78%
    22:00 0°C° 0 mm 1 mps 711 mmHg 77%
    23:00 0°C° 0 mm 1 mps 711 mmHg 77%

    23 January, Tuesday

    Time Temperature Precipitation Wind Pressure Humidity
    00:00 0°C° 0 mm 1 mps 711 mmHg 77%
    01:00 0°C° 0 mm 1 mps 711 mmHg 77%
    02:00 0°C° 0 mm 1 mps 711 mmHg 78%
    03:00 0°C° 0 mm 1 mps 711 mmHg 79%
    04:00 0°C° 0 mm 1 mps 711 mmHg 79%
    05:00 0°C° 0 mm 1 mps 711 mmHg 80%
    06:00 +1°C° 0 mm 1 mps 712 mmHg 80%
    07:00 +1°C° 0 mm 1 mps 712 mmHg 80%
    08:00 +2°C° 0 mm 1 mps 713 mmHg 81%
    09:00 +4°C° 0 mm 1 mps 713 mmHg 81%
    10:00 +5°C° 0 mm 1 mps 714 mmHg 82%
    11:00 +5°C° 0 mm 1 mps 714 mmHg 83%
    12:00 +6°C° 0 mm 1 mps 714 mmHg 83%
    13:00 +6°C° 0 mm 1 mps 714 mmHg 84%
    14:00 +6°C° 0.1 mm 1 mps 715 mmHg 86%
    15:00 +5°C° 0.1 mm 1 mps 715 mmHg 88%
    16:00 +4°C° 0.1 mm 1 mps 716 mmHg 91%
    17:00 +3°C° 0 mm 1 mps 716 mmHg 92%
    18:00 +3°C° 0 mm 1 mps 717 mmHg 93%
    19:00 +2°C° 0 mm 1 mps 717 mmHg 94%
    20:00 +1°C° 0 mm 1 mps 718 mmHg 94%
    21:00 +1°C° 0 mm 1 mps 718 mmHg 94%
    22:00 +1°C° 0 mm 1 mps 719 mmHg 94%
    23:00 +1°C° 0 mm 1 mps 719 mmHg 94%

    24 January, Wednesday

    Time Temperature Precipitation Wind Pressure Humidity
    00:00 0°C° 0 mm 1 mps 719 mmHg 94%
    01:00 0°C° 0 mm 1 mps 719 mmHg 94%
    02:00 0°C° 0 mm 1 mps 719 mmHg 94%
    03:00 0°C° 0 mm 1 mps 719 mmHg 93%
    04:00 0°C° 0 mm 1 mps 719 mmHg 93%
    05:00 -1°C° 0 mm 1 mps 720 mmHg 92%
    06:00 -1°C° 0 mm 1 mps 720 mmHg 92%
    07:00 -1°C° 0 mm 1 mps 720 mmHg 91%
    08:00 0°C° 0 mm 1 mps 720 mmHg 87%
    09:00 +2°C° 0 mm 1 mps 721 mmHg 83%
    10:00 +3°C° 0 mm 1 mps 721 mmHg 79%
    11:00 +4°C° 0 mm 1 mps 721 mmHg 79%
    12:00 +5°C° 0 mm 1 mps 721 mmHg 78%
    13:00 +6°C° 0 mm 1 mps 721 mmHg 77%
    14:00 +5°C° 0 mm 1 mps 721 mmHg 79%
    15:00 +5°C° 0 mm 1 mps 720 mmHg 81%
    16:00 +4°C° 0 mm 1 mps 720 mmHg 83%
    17:00 +3°C° 0 mm 1 mps 720 mmHg 84%
    18:00 +2°C° 0 mm 1 mps 720 mmHg 85%
    19:00 +1°C° 0 mm 1 mps 720 mmHg 85%
    20:00 +1°C° 0 mm 1 mps 720 mmHg 82%
    21:00 +1°C° 0 mm 1 mps 720 mmHg 79%
    22:00 +1°C° 0 mm 1 mps 720 mmHg 76%
    23:00 +1°C° 0 mm 1 mps 720 mmHg 74%

    25 January, Thursday

    Time Temperature Precipitation Wind Pressure Humidity
    00:00 +1°C° 0 mm 1 mps 720 mmHg 71%
    01:00 +1°C° 0 mm 1 mps 719 mmHg 68%
    02:00 +1°C° 0 mm 1 mps 719 mmHg 67%
    03:00 +1°C° 0 mm 1 mps 719 mmHg 65%
    04:00 +1°C° 0 mm 1 mps 719 mmHg 64%
    05:00 +1°C° 0 mm 1 mps 718 mmHg 63%
    06:00 +1°C° 0 mm 1 mps 718 mmHg 62%
    07:00 +1°C° 0 mm 1 mps 718 mmHg 60%
    08:00 +3°C° 0 mm 1 mps 718 mmHg 62%
    09:00 +5°C° 0 mm 1 mps 718 mmHg 64%
    10:00 +5°C° 0 mm 0 mps 718 mmHg 66%
    11:00 +6°C° 0 mm 0 mps 718 mmHg 67%
    12:00 +7°C° 0 mm 0 mps 717 mmHg 69%
    13:00 +8°C° 0 mm 0 mps 717 mmHg 70%
    14:00 +7°C° 0 mm 0 mps 717 mmHg 72%
    15:00 +6°C° 0 mm 0 mps 716 mmHg 74%
    16:00 +5°C° 0 mm 0 mps 716 mmHg 76%
    17:00 +4°C° 0 mm 0 mps 716 mmHg 76%
    18:00 +4°C° 0 mm 1 mps 716 mmHg 76%
    19:00 +3°C° 0 mm 1 mps 715 mmHg 77%
    20:00 +3°C° 0 mm 1 mps 715 mmHg 76%
    21:00 +3°C° 0 mm 1 mps 715 mmHg 75%
    22:00 +3°C° 0 mm 1 mps 715 mmHg 75%
    23:00 +3°C° 0 mm 1 mps 715 mmHg 75%
    Show more